TimeCDT,TemperatureF,Dew PointF,Humidity,Sea Level PressureIn,VisibilityMPH,Wind Direction,Wind SpeedMPH,Gust SpeedMPH,PrecipitationIn,Events,Conditions,WindDirDegrees,DateUTC
12:53 AM,35.1,34.0,96,29.69,10.0,SW,4.6,-,N/A,,Mostly Cloudy,230,2012-10-09 05:53:00
1:53 AM,36.0,34.0,93,29.70,10.0,WSW,6.9,-,N/A,,Partly Cloudy,250,2012-10-09 06:53:00
2:53 AM,37.4,33.8,87,29.66,10.0,West,8.1,-,N/A,,Overcast,260,2012-10-09 07:53:00
3:53 AM,37.9,32.0,79,29.68,10.0,West,10.4,-,N/A,,Overcast,260,2012-10-09 08:53:00
4:53 AM,36.0,30.0,79,29.69,10.0,West,9.2,-,N/A,,Clear,270,2012-10-09 09:53:00
5:53 AM,34.0,28.9,82,29.70,10.0,West,11.5,-,N/A,,Clear,260,2012-10-09 10:53:00
6:53 AM,33.1,28.0,82,29.71,10.0,West,11.5,-,N/A,,Clear,260,2012-10-09 11:53:00
7:53 AM,34.0,28.9,82,29.72,10.0,WSW,6.9,-,N/A,,Overcast,250,2012-10-09 12:53:00
8:33 AM,35.6,28.4,75,29.67,10.0,West,8.1,-,N/A,,Overcast,260,2012-10-09 13:33:00
8:53 AM,36.0,30.0,79,29.72,10.0,West,10.4,-,N/A,,Overcast,270,2012-10-09 13:53:00
9:53 AM,36.0,32.0,86,29.74,10.0,West,12.7,-,0.00,,Overcast,270,2012-10-09 14:53:00
10:53 AM,37.0,32.0,82,29.75,10.0,West,10.4,-,0.00,,Overcast,280,2012-10-09 15:53:00
11:53 AM,37.0,33.1,86,29.78,8.0,WNW,16.1,-,N/A,,Overcast,290,2012-10-09 16:53:00
12:13 PM,37.4,33.8,87,29.74,4.0,WNW,15.0,-,N/A,,Overcast,300,2012-10-09 17:13:00
12:24 PM,37.4,33.8,87,29.74,10.0,NW,15.0,-,N/A,,Overcast,310,2012-10-09 17:24:00
12:33 PM,37.4,33.8,87,29.75,6.0,NW,16.1,24.2,0.00,Rain,Light Rain,320,2012-10-09 17:33:00
12:40 PM,37.4,33.8,87,29.75,8.0,NW,13.8,24.2,0.00,Rain,Light Rain,310,2012-10-09 17:40:00
12:53 PM,39.0,35.1,86,29.80,10.0,NW,13.8,-,0.00,,Overcast,320,2012-10-09 17:53:00
1:18 PM,39.2,33.8,81,29.76,10.0,NW,20.7,25.3,0.00,,Overcast,310,2012-10-09 18:18:00
1:44 PM,37.4,30.2,75,29.78,10.0,NW,20.7,28.8,0.00,Rain,Light Rain,310,2012-10-09 18:44:00
1:53 PM,37.9,30.9,76,29.83,10.0,NW,23.0,28.8,0.00,Rain,Light Rain,320,2012-10-09 18:53:00
2:53 PM,37.0,28.0,70,29.86,10.0,NW,16.1,25.3,0.00,,Overcast,320,2012-10-09 19:53:00
3:17 PM,37.4,26.6,65,29.82,10.0,NW,21.9,27.6,N/A,,Overcast,320,2012-10-09 20:17:00
3:53 PM,39.0,26.1,60,29.87,10.0,NW,16.1,25.3,N/A,,Overcast,320,2012-10-09 20:53:00
4:53 PM,37.9,28.0,68,29.89,9.0,NW,12.7,-,0.00,,Overcast,320,2012-10-09 21:53:00
5:53 PM,37.0,28.0,70,29.92,10.0,WNW,17.3,21.9,N/A,,Overcast,300,2012-10-09 22:53:00
6:53 PM,34.0,27.0,75,29.95,10.0,WNW,11.5,-,0.00,,Mostly Cloudy,290,2012-10-09 23:53:00
7:53 PM,33.1,27.0,78,29.97,10.0,WNW,11.5,-,N/A,,Partly Cloudy,290,2012-10-10 00:53:00
8:53 PM,34.0,28.0,79,29.98,10.0,WNW,10.4,-,N/A,,Overcast,290,2012-10-10 01:53:00
9:53 PM,32.0,27.0,82,30.00,10.0,WNW,8.1,-,N/A,,Scattered Clouds,300,2012-10-10 02:53:00
10:53 PM,28.9,26.1,89,30.00,10.0,WNW,6.9,-,N/A,,Mostly Cloudy,290,2012-10-10 03:53:00
11:53 PM,27.0,24.1,89,30.01,10.0,West,8.1,-,N/A,,Clear,280,2012-10-10 04:53:00